Tracking 30402 objects as of 12-May-2025
HD Live streaming from Space Station
objects crossing your sky now

STARLINK-6060

Track STARLINK-6060 now!
10-day predictions
STARLINK-6060 is classified as:


NORAD ID: 56794
Int'l Code: 2023-078AD
Perigee: 577.0 km
Apogee: 581.5 km
Inclination: 70.0 °
Period: 96.1 minutes
Semi major axis: 6950 km
RCS: Unknown
Launch date: May 31, 2023
Source: United States (US)
Launch site: AIR FORCE WESTERN TEST RANGE (AFWTR)
Your satellite tracking list
Your tracking list is empty




NASA's NSSDC Master Catalog

Two Line Element Set (TLE):
1 56794U 23078AD  25131.66517687  .00000928  00000-0  85629-4 0  9992
2 56794  70.0000   5.9545 0003254 269.6798  90.3988 14.98304481107938
Source of the keplerian elements: AFSPC